Theta_e
345 346 349 354 353 353 352 352 353 353 353 352 353 353 353 352 353 352 352 352 352 352 353 353 354 354 354 354 354 353 353 353 354 353 353 352 353 353 352 351 350 349 349 348 348 347 346 344 344 344 345 346 343 342 343 344 343 343 343 344 345 346 345 345 346 345 345 345 344 344 344 345 346 346 345 344 344 343 342 343 342 340 340 342 344
343 347 349 351 353 353 352 353 352 352 352 352 353 353 352 353 353 352 352 352 353 353 353 354 353 354 354 354 354 353 353 353 353 353 352 352 352 352 351 350 349 349 349 348 348 348 347 345 343 342 342 342 343 341 341 342 343 344 344 344 344 345 345 345 345 346 346 346 345 345 344 344 345 346 345 345 344 342 341 342 342 338 337 342 342
346 347 349 350 352 352 351 351 351 352 351 352 352 352 352 352 352 352 352 353 353 354 354 354 353 353 353 354 353 353 354 354 353 353 352 352 352 351 350 350 349 349 350 349 349 348 347 346 345 344 342 342 342 342 342 342 343 343 345 344 344 345 345 344 345 346 346 346 345 345 345 345 344 344 344 344 344 343 342 342 342 340 336 339 339
345 346 348 348 351 352 351 351 352 351 351 352 352 352 352 352 352 352 352 353 353 354 353 353 353 353 353 353 353 353 353 353 353 352 352 352 352 350 350 350 350 350 350 350 349 348 347 346 345 344 343 342 342 342 342 342 343 343 343 344 344 344 344 344 345 344 344 344 343 341 341 334 339 343 343 342 341 342 343 342 340 339 339 339 339
345 345 346 347 347 351 352 352 352 351 351 351 352 352 352 352 352 352 353 353 353 353 354 353 354 354 353 353 353 353 353 353 352 352 352 351 350 352 351 350 351 350 349 350 349 349 348 347 346 344 343 342 343 342 342 342 342 343 343 343 343 343 344 344 345 345 346 344 341 339 333 334 335 341 342 342 341 342 343 342 339 339 339 338 338
344 344 346 346 347 349 352 352 351 351 351 351 351 351 352 352 353 353 353 354 353 353 354 353 353 353 353 353 353 353 353 352 353 352 351 351 351 350 349 351 351 350 349 350 349 348 348 348 347 347 344 343 343 343 343 344 344 343 344 343 343 343 343 342 344 343 343 345 343 338 332 334 335 338 342 341 340 340 342 342 339 338 338 338 337
344 344 345 345 346 348 350 351 350 350 350 351 351 351 352 351 352 353 353 353 353 354 353 353 353 353 353 352 352 352 352 352 352 352 351 351 350 350 350 350 350 351 350 349 349 349 348 347 347 346 345 344 343 344 343 343 343 344 344 344 344 344 344 344 344 344 344 345 334 333 331 333 335 337 342 343 343 342 342 343 341 339 338 337 337
344 344 345 345 345 348 351 351 350 350 350 350 351 351 352 352 353 353 353 353 354 353 353 353 353 353 352 352 352 352 352 352 352 352 351 351 351 350 350 350 350 350 350 350 348 347 347 347 346 346 346 345 344 343 343 342 343 343 343 343 343 344 344 344 344 345 344 340 337 333 331 333 334 337 342 344 345 345 344 344 341 338 338 338 337
342 343 344 344 345 350 351 351 350 350 350 350 351 352 352 353 353 353 353 353 353 353 353 353 353 353 352 352 352 351 351 351 351 351 351 350 350 350 350 350 350 349 348 347 346 345 346 346 346 346 345 345 344 344 343 343 344 343 344 343 344 344 345 345 346 345 339 337 338 332 332 333 334 335 341 343 343 341 340 340 341 338 337 337 337
342 343 343 343 345 349 350 351 351 350 350 351 351 352 353 353 353 353 354 353 353 353 353 353 352 352 352 351 351 351 351 351 350 350 349 349 349 348 348 348 348 347 346 346 346 346 346 347 347 346 346 346 345 344 342 343 343 344 344 345 345 344 345 346 346 342 335 335 334 332 333 341 334 335 339 341 341 342 341 341 340 337 337 337 337
342 343 343 344 347 350 351 350 351 350 351 352 352 353 353 353 353 353 353 353 353 353 353 352 352 352 351 351 350 349 348 348 348 348 348 348 348 348 347 347 346 346 346 347 346 346 346 347 347 346 346 346 345 344 344 344 343 344 344 344 345 345 346 347 345 336 336 332 331 333 341 343 331 332 341 341 340 340 339 338 336 336 337 336 335
341 342 343 345 349 350 351 351 351 351 352 352 353 353 353 353 353 353 353 353 353 353 352 352 351 351 350 349 348 348 348 348 347 346 346 345 345 345 345 346 345 344 344 346 345 344 346 347 347 346 346 346 346 345 345 344 344 344 344 345 346 346 347 347 341 336 335 334 337 338 338 336 333 339 341 341 340 339 339 337 336 336 335 336 335
341 343 344 345 348 351 351 351 351 352 353 353 353 353 353 353 353 353 353 352 352 352 351 351 351 349 348 347 347 347 346 346 346 345 345 344 343 343 342 342 342 343 344 344 344 344 346 345 346 346 346 346 346 347 347 346 345 346 346 346 346 346 347 346 339 336 337 333 337 336 334 332 333 342 340 340 340 339 338 337 336 335 336 335 334
341 343 346 347 347 352 352 352 352 353 353 353 353 353 353 353 353 353 352 352 352 351 351 350 350 349 348 347 346 345 345 343 343 342 341 342 342 342 341 342 342 342 343 344 344 345 345 345 345 346 346 346 346 345 346 347 346 346 346 346 347 347 347 345 343 339 338 333 335 333 332 335 333 341 340 341 340 339 338 338 336 335 335 335 335
342 344 345 348 349 348 353 353 353 353 352 353 353 353 353 353 352 352 352 352 351 350 350 350 349 349 347 347 346 346 345 345 344 342 341 340 340 340 341 341 341 341 342 343 344 344 344 344 345 345 346 346 345 346 347 347 345 347 347 347 347 347 347 342 342 339 338 333 333 337 332 332 342 340 341 341 340 340 338 337 336 335 334 334 334
344 344 347 347 349 350 351 354 353 352 352 353 353 353 352 352 352 352 351 351 350 350 350 350 349 348 347 346 346 346 346 345 344 344 343 342 341 340 340 340 340 340 342 342 342 342 342 343 345 345 346 346 347 348 347 347 346 347 347 347 347 348 348 347 339 339 335 333 334 335 332 335 342 341 341 341 340 339 338 337 336 335 334 333 334
344 346 345 346 347 348 350 351 352 353 352 353 352 352 352 351 351 351 350 350 350 350 349 349 349 348 347 346 346 346 345 344 344 343 343 343 343 341 340 340 339 340 340 341 341 341 341 343 342 343 345 344 346 345 346 347 347 348 347 347 347 347 348 348 341 337 334 332 335 334 332 336 341 341 342 341 340 339 338 336 336 335 334 333 333
343 344 344 345 346 347 348 349 349 349 349 351 352 351 351 351 351 350 350 350 349 349 349 349 348 348 347 347 346 345 345 344 344 344 344 343 342 341 340 340 341 341 341 340 341 341 341 340 342 342 342 344 345 345 346 347 347 347 347 347 347 348 348 349 336 337 336 337 333 335 335 341 343 342 342 342 340 339 338 337 335 335 334 333 333
341 342 343 344 346 347 347 347 348 348 348 348 348 350 351 350 350 350 350 350 350 349 349 349 348 348 347 346 346 346 345 344 345 345 345 345 344 344 342 341 340 340 341 341 340 341 341 341 342 341 342 342 343 345 346 347 346 347 348 348 348 349 349 343 334 335 338 336 331 333 332 342 344 343 343 342 340 339 338 336 336 335 335 334 333
339 339 340 343 346 346 345 346 346 347 347 348 348 348 350 350 350 350 350 350 349 349 349 349 349 348 348 347 347 345 345 342 345 343 345 345 344 342 343 342 340 340 339 340 341 341 340 341 342 342 342 342 343 344 344 346 346 347 348 349 349 350 340 332 335 336 330 331 334 331 335 343 343 343 344 342 340 339 338 338 336 335 335 335 333
337 337 338 341 343 342 342 342 344 344 346 347 346 346 348 349 349 350 350 350 349 349 349 349 349 349 347 347 346 340 339 339 339 339 345 341 344 343 344 344 342 341 341 340 341 341 342 342 343 344 344 344 343 342 343 344 345 347 349 349 350 342 336 333 333 336 330 332 337 330 337 344 344 344 344 342 340 339 339 338 337 336 335 334 334
335 336 338 340 340 340 340 340 341 342 344 346 347 347 347 347 343 344 344 346 349 349 346 342 350 341 348 345 340 341 338 336 336 346 341 341 341 343 343 344 343 343 342 342 341 341 342 341 342 343 343 343 343 337 336 339 342 344 348 350 346 339 336 335 333 335 334 330 333 332 340 345 344 344 344 343 341 340 339 338 338 337 337 335 336
335 336 337 339 339 339 339 340 342 343 343 345 346 346 345 343 342 343 345 348 348 347 341 346 341 341 343 342 343 340 339 337 339 344 342 344 342 343 343 344 344 344 344 345 345 345 344 344 345 344 344 343 336 330 331 331 331 341 345 344 340 339 338 337 335 334 336 331 332 336 343 345 345 345 345 344 342 341 339 339 339 338 337 336 336
336 337 337 339 339 338 338 340 341 342 343 343 344 343 342 342 342 343 343 342 339 344 340 340 340 339 342 339 341 340 342 338 346 349 350 342 340 345 345 344 344 345 344 344 345 344 344 344 345 345 343 338 330 328 328 327 328 331 334 337 338 338 337 336 335 336 333 334 332 338 346 345 346 346 346 345 344 343 341 340 340 339 338 337 336
339 340 339 338 340 339 338 339 341 341 342 342 342 341 340 341 341 342 342 339 340 339 340 340 339 339 338 340 340 342 339 337 338 340 339 339 337 336 337 337 338 337 345 338 337 338 338 336 336 336 332 331 329 327 326 326 329 331 333 335 337 337 336 336 337 337 336 333 336 341 347 346 346 346 347 347 346 344 343 341 341 340 339 337 337
335 336 338 341 342 340 339 339 339 340 340 341 341 342 342 340 340 341 340 340 341 340 341 341 340 340 338 342 343 338 337 337 336 337 339 336 336 336 336 335 335 339 340 338 336 336 336 336 337 336 333 330 327 325 324 328 325 326 332 335 337 337 336 335 336 335 334 332 335 343 346 345 346 347 347 347 347 346 344 343 343 342 341 338 338
334 335 338 340 341 340 338 338 337 337 338 339 340 341 339 339 340 340 340 339 339 339 339 338 338 340 342 343 336 335 334 334 334 336 334 335 335 335 336 338 338 336 341 338 335 336 337 337 335 335 335 333 331 328 326 326 326 327 329 335 336 337 336 336 334 331 331 332 335 343 345 345 345 346 347 347 348 347 346 345 345 344 343 341 339
334 335 338 338 340 340 339 338 336 335 335 337 337 338 337 337 338 343 342 340 340 338 337 337 343 343 343 343 342 335 334 333 334 334 334 333 334 334 334 337 338 337 339 340 339 336 337 337 337 337 337 336 332 330 332 334 333 330 332 334 334 333 332 330 328 327 328 332 333 341 345 344 345 345 346 347 348 348 347 346 346 345 344 343 342
333 335 338 338 339 340 340 338 336 334 334 334 335 336 334 336 337 339 339 343 338 337 337 339 341 342 342 343 345 337 335 335 334 334 334 332 333 335 336 339 338 337 336 335 335 337 335 334 334 337 338 336 335 334 334 336 334 332 331 331 331 331 331 331 331 331 331 331 333 338 346 345 344 344 346 348 347 347 348 347 347 346 346 345 344
335 337 338 338 339 340 339 338 336 334 333 333 333 333 334 334 336 338 339 343 339 339 338 337 337 339 339 342 342 338 338 337 334 335 334 332 332 333 337 339 337 336 334 336 335 334 334 334 335 335 335 334 333 336 336 335 335 334 333 332 332 332 331 330 331 330 331 332 332 336 346 346 344 343 343 346 348 347 347 347 348 348 348 346 344
337 337 337 338 338 337 336 337 336 337 334 334 333 332 333 333 334 335 335 335 336 336 335 335 335 335 336 337 337 340 339 337 335 334 333 331 332 334 336 337 335 336 337 337 336 335 335 334 335 334 333 333 334 334 334 334 333 333 333 332 332 331 331 332 332 333 333 332 331 332 338 346 345 344 343 343 345 347 347 347 346 347 348 345 343
335 335 335 335 334 333 334 335 334 335 335 334 334 333 333 334 333 335 334 335 336 335 335 336 337 335 336 335 335 335 338 337 337 336 334 333 334 333 334 335 335 336 338 336 336 337 336 337 338 337 336 333 334 333 334 332 332 332 332 333 332 332 332 332 332 331 331 332 331 332 332 335 343 345 344 343 343 345 346 347 348 347 346 347 346
333 332 331 333 333 334 334 334 335 334 333 333 333 334 334 334 334 334 335 335 334 334 334 335 336 337 338 336 334 335 337 335 337 337 339 335 334 333 334 333 334 336 336 337 336 336 335 335 336 336 337 334 334 333 334 333 332 332 333 334 334 333 333 334 334 332 332 331 332 331 332 334 334 339 342 343 343 343 344 345 347 348 348 348 346
330 331 333 332 334 334 335 334 333 333 333 333 333 333 333 333 334 334 336 335 334 335 336 336 338 336 337 336 335 335 334 334 335 336 336 335 333 332 333 332 333 336 338 338 335 334 335 335 334 334 337 333 332 332 331 331 331 331 332 333 333 333 332 333 332 333 332 332 332 332 332 332 332 333 334 339 341 343 344 343 344 345 346 347 347
331 331 331 332 333 333 335 334 335 335 335 333 333 333 334 334 333 333 334 335 335 334 334 335 335 336 336 335 336 336 335 334 336 334 334 334 333 334 333 332 335 338 336 336 334 334 334 334 333 333 332 331 331 333 332 330 330 331 332 332 332 333 333 333 334 334 334 333 332 332 333 334 332 333 333 332 337 341 343 343 344 344 345 345 346
330 331 332 333 333 333 334 333 333 333 332 334 334 334 334 334 335 337 334 334 334 333 332 333 334 334 335 333 335 336 335 334 337 339 336 335 334 334 334 335 336 334 333 333 333 331 331 331 331 331 329 329 330 330 330 329 329 330 331 331 331 332 332 332 333 333 334 334 334 334 334 333 333 332 339 333 332 335 341 342 343 343 343 343 345
331 331 331 332 332 333 333 332 332 332 333 333 333 333 334 335 335 334 334 333 333 333 333 333 334 333 334 333 333 335 336 338 337 337 336 335 333 333 333 333 333 332 331 330 330 330 329 329 328 330 328 325 327 327 325 326 327 329 330 329 330 330 330 330 331 332 334 333 333 333 333 334 335 343 336 335 335 334 337 340 342 342 342 342 341
332 332 332 332 331 332 332 333 332 333 333 333 334 334 334 333 333 333 334 332 332 332 333 334 334 333 333 333 335 335 334 334 335 335 334 334 331 330 331 332 331 330 329 328 327 328 328 326 325 327 327 326 326 324 322 323 326 328 328 327 327 327 328 329 331 333 331 332 332 333 333 333 333 332 333 333 334 334 334 336 338 339 341 340 341
331 331 332 332 332 332 333 334 333 333 333 334 334 332 332 332 333 332 331 331 331 331 332 332 332 333 333 335 334 332 331 330 330 332 332 331 330 329 329 329 330 329 327 326 326 326 326 324 323 324 325 326 324 322 321 321 324 325 325 325 325 325 326 327 329 326 327 328 330 331 331 329 327 326 328 328 330 332 334 333 332 333 334 338 339
333 333 332 332 332 332 332 332 333 333 333 333 332 331 331 331 329 329 329 330 330 332 331 331 332 330 329 329 329 329 329 328 327 327 328 328 328 328 327 328 329 329 326 324 323 322 321 321 321 322 321 322 322 320 320 320 321 319 321 323 323 323 323 326 323 323 325 325 326 327 325 323 321 322 324 324 325 325 325 325 328 327 328 332 335
333 332 331 330 330 332 333 332 333 333 331 330 330 329 328 328 327 327 327 328 330 330 329 327 326 327 326 326 326 326 326 326 326 326 324 327 325 326 324 324 325 325 324 322 321 321 321 321 319 320 319 318 318 318 318 319 317 316 316 318 320 321 322 323 321 322 323 323 323 323 321 318 317 319 322 320 320 319 319 319 319 320 321 325 329
331 332 330 331 332 334 333 333 332 330 329 329 330 328 327 327 327 327 328 329 329 326 324 324 324 325 325 324 325 324 324 325 326 324 324 323 322 322 322 320 321 322 321 321 320 322 318 318 318 316 318 317 315 316 316 317 313 312 313 315 314 319 319 320 319 320 322 322 321 320 318 315 314 317 319 317 316 315 315 316 317 318 319 324 327
331 331 332 333 333 332 332 332 330 328 328 330 329 329 328 329 328 327 329 330 330 327 325 325 324 321 322 323 323 322 322 322 322 323 321 320 319 319 319 319 319 321 316 316 316 316 316 316 316 314 313 315 316 316 315 315 310 312 312 310 308 312 314 315 316 317 320 320 319 317 315 312 313 316 315 314 312 312 314 315 315 317 318 322 325
330 332 333 332 332 331 331 330 328 327 329 331 331 330 330 329 329 331 330 327 324 325 323 323 321 320 320 321 321 320 320 319 320 321 319 318 317 316 316 316 317 318 315 314 314 314 314 314 313 314 312 310 311 311 314 313 312 312 307 309 311 309 306 308 311 314 317 318 316 314 312 310 311 314 311 310 309 310 311 313 314 315 317 315 323
331 332 332 331 331 331 331 329 328 327 329 331 330 330 331 330 331 329 328 326 325 322 320 319 320 321 319 318 318 318 318 317 317 318 319 315 315 315 315 315 315 315 315 314 313 312 312 312 312 312 311 308 308 308 310 313 311 314 310 309 308 308 307 309 310 308 312 314 313 312 311 309 309 311 309 308 308 308 310 311 312 314 314 311 319
330 331 332 331 331 330 329 328 327 328 329 329 330 330 330 329 327 325 324 323 321 319 316 315 315 315 315 316 316 316 316 315 315 315 317 316 314 314 314 314 314 314 314 312 312 312 311 310 310 310 310 310 308 307 306 311 311 312 312 313 314 308 306 309 307 303 310 312 311 309 308 307 308 307 307 306 306 306 310 309 310 311 310 310 316
330 331 330 329 328 327 327 328 328 328 329 330 330 330 328 329 328 326 325 323 321 320 320 318 317 315 316 314 314 314 314 313 313 314 314 315 313 313 313 313 313 313 315 312 311 310 310 310 311 310 309 310 308 305 305 305 307 308 310 311 313 312 310 306 302 304 300 305 307 305 305 306 307 306 306 304 305 305 306 308 308 307 307 308 311
330 331 329 328 327 327 327 327 328 328 327 329 330 329 329 328 326 324 324 322 321 320 320 319 319 318 315 314 314 314 314 314 314 313 314 315 314 312 313 313 313 313 314 310 310 309 310 311 311 309 310 309 307 305 304 305 303 304 309 307 308 310 308 306 305 302 301 298 299 303 304 304 305 304 304 303 303 304 303 304 306 304 305 307 306
330 330 329 327 326 325 324 324 324 324 323 325 327 328 329 327 325 324 322 322 321 320 320 320 318 318 315 315 313 313 313 313 313 313 312 313 315 312 311 312 312 312 315 310 310 309 308 308 307 307 307 308 309 308 305 304 305 304 304 305 305 305 305 304 303 303 301 297 297 298 298 301 301 301 302 302 302 303 303 304 304 304 305 305 303
330 330 329 326 323 322 322 321 320 320 321 322 325 326 326 326 324 323 322 320 320 318 318 317 316 316 314 313 312 311 311 311 311 311 310 311 311 312 311 311 311 313 313 309 308 308 307 307 307 308 307 306 306 307 306 305 304 304 304 304 302 301 300 300 299 299 299 300 296 297 297 296 294 297 300 300 300 302 301 303 301 302 302 302 301
329 328 325 323 321 321 320 319 319 319 320 320 321 322 323 323 322 322 320 318 317 316 314 313 314 314 312 311 310 310 310 309 309 309 309 309 310 312 309 310 311 313 310 308 307 307 307 307 307 306 306 306 305 304 304 304 303 303 302 302 301 300 298 297 297 298 297 296 295 295 295 296 295 294 297 299 300 300 300 300 300 300 301 300 300
Wind_Speed
5 9 7 11 12 13 15 15 15 15 15 16 15 16 16 17 16 17 17 16 15 15 14 13 12 13 13 13 13 13 13 13 12 12 12 12 12 12 12 12 12 13 13 13 13 12 11 11 11 10 11 12 12 11 11 11 11 12 12 12 13 13 13 13 14 14 13 12 12 12 12 12 13 12 14 14 14 14 13 12 11 8 5 9 13
10 7 6 8 12 13 16 16 15 15 15 15 15 16 17 16 17 16 16 16 15 15 14 13 12 12 12 13 13 13 13 12 12 12 12 12 12 12 12 12 12 13 13 13 13 11 10 10 11 10 10 10 10 10 11 12 14 14 13 12 13 13 13 13 13 13 13 12 12 12 12 12 12 13 13 13 13 13 12 12 12 5 3 11 12
11 8 6 9 14 14 15 16 16 15 15 15 15 16 16 17 16 16 16 16 16 15 14 12 12 12 12 12 12 12 12 12 12 12 12 12 12 11 11 12 12 12 12 12 11 11 10 10 10 11 10 9 9 9 10 11 11 11 11 12 12 12 12 12 13 13 12 12 12 11 12 12 12 12 12 12 12 12 12 12 12 10 6 11 10
13 8 7 11 14 12 14 15 15 14 15 14 15 16 16 16 16 16 16 16 16 15 14 14 12 12 12 12 12 12 12 12 11 11 12 12 11 10 11 11 11 11 11 12 11 10 9 9 10 10 10 9 9 9 9 8 9 9 11 12 11 11 12 12 12 12 13 11 10 7 3 4 7 11 11 11 11 11 12 13 13 11 11 11 11
12 9 8 8 8 10 13 15 15 14 15 15 15 16 16 16 16 16 15 15 15 15 15 14 13 12 11 11 12 12 11 12 11 11 11 10 10 10 10 10 10 11 11 12 11 9 9 8 9 10 9 9 8 8 8 8 8 9 9 9 9 9 9 9 10 12 9 10 9 5 2 3 4 9 10 10 11 12 12 12 13 11 10 11 10
11 9 8 8 7 8 13 12 14 15 15 15 15 16 15 16 15 15 15 14 15 15 14 14 13 12 12 12 12 11 12 12 11 11 10 9 8 9 9 9 10 10 10 11 10 9 9 9 8 8 9 8 8 8 8 8 8 9 8 8 8 8 6 5 4 2 4 6 6 1 1 1 2 4 10 10 10 11 11 12 13 11 9 8 8
12 8 8 8 6 8 14 13 15 15 15 15 16 15 15 15 16 15 15 15 15 15 15 14 13 12 11 11 11 11 12 11 11 11 10 9 8 8 8 9 9 9 9 10 9 8 8 8 8 8 8 7 7 7 8 8 8 8 8 7 7 6 6 5 4 5 4 2 3 3 1 1 2 2 9 9 9 10 10 10 11 11 9 8 8
9 8 8 8 6 11 13 13 14 14 15 15 15 15 15 15 15 15 15 15 14 15 14 14 13 12 11 11 11 11 11 11 11 11 10 9 8 8 8 8 8 9 9 10 9 8 8 8 7 7 6 6 6 7 7 7 7 7 6 6 6 6 5 5 5 5 6 0 4 3 1 1 3 2 7 9 10 10 10 11 10 9 8 8 9
10 9 8 8 8 15 11 12 14 15 15 15 15 15 14 14 15 15 15 15 14 15 14 14 13 12 12 11 11 11 11 11 10 10 10 9 9 8 8 8 9 9 9 8 8 7 8 7 7 7 6 6 5 5 5 6 6 6 6 6 6 6 6 6 7 7 3 1 5 4 3 3 3 2 7 9 9 9 9 8 7 8 8 8 8
10 8 8 7 8 15 13 11 12 15 15 15 15 14 14 14 15 15 15 15 14 14 14 14 14 12 11 11 10 10 10 10 10 9 9 8 8 7 7 7 7 7 7 7 6 6 7 7 7 6 6 5 4 4 4 4 5 5 6 6 6 7 7 7 8 6 4 5 7 5 3 5 2 3 6 9 8 9 9 9 7 6 6 8 8
10 8 7 7 10 13 11 12 12 14 14 15 14 14 14 14 14 14 15 15 14 14 13 14 13 12 11 10 9 9 9 9 8 7 7 7 7 6 6 6 6 5 6 6 6 5 6 7 7 6 6 4 4 4 4 4 5 6 6 6 7 7 9 10 8 4 4 4 5 4 6 10 3 2 8 9 8 8 8 8 7 7 8 8 7
9 7 6 7 14 13 12 11 13 14 15 14 13 14 14 13 14 14 14 14 14 14 13 12 12 11 10 10 9 9 9 8 7 7 6 6 5 5 5 5 4 5 4 4 4 5 5 6 6 6 5 4 4 4 5 5 5 6 6 7 8 9 10 11 5 4 3 4 4 4 5 5 4 5 10 9 9 8 8 7 6 5 6 8 7
10 8 7 6 7 13 11 11 13 13 14 14 14 14 13 14 14 14 14 13 13 13 12 12 11 10 10 9 9 9 9 9 8 7 7 6 6 5 4 4 4 3 3 3 3 4 4 5 6 5 5 5 5 6 5 5 5 6 7 7 8 9 9 9 4 4 3 4 3 4 5 4 4 9 9 10 10 9 7 7 6 5 6 6 6
10 8 8 7 6 13 11 10 10 12 12 13 13 13 13 13 14 14 12 12 12 12 11 11 11 11 10 9 9 9 9 9 8 7 7 6 5 5 4 4 2 3 2 2 2 3 4 4 5 5 5 5 5 6 7 6 6 6 7 7 7 7 7 5 5 4 2 4 2 2 4 4 4 10 9 10 9 8 6 7 6 5 7 6 6
12 10 9 7 7 7 14 10 10 10 10 11 11 11 11 11 11 11 11 11 12 12 12 11 11 10 10 9 9 9 8 8 8 7 7 6 5 5 4 4 3 2 1 1 2 3 4 4 5 5 5 5 5 5 5 6 6 7 7 7 7 7 7 3 3 1 2 4 3 3 3 3 8 10 10 9 9 9 8 7 6 7 6 5 6
12 11 8 7 7 7 7 12 12 11 11 11 11 12 12 11 11 11 11 11 11 12 11 11 10 10 10 9 8 8 8 8 7 7 6 6 5 5 5 4 3 2 1 1 2 2 3 4 4 5 5 5 5 5 5 7 7 7 7 7 7 7 8 5 2 1 1 4 3 3 3 3 11 10 9 10 9 8 8 6 6 6 5 4 6
10 9 9 8 7 5 5 6 10 14 11 12 12 13 11 11 11 11 11 11 11 11 11 11 10 10 9 9 8 7 7 7 6 6 6 6 5 5 5 4 3 3 2 0 1 1 2 3 4 4 5 4 5 6 6 6 7 8 7 7 7 7 6 5 1 2 1 4 4 4 4 4 10 10 11 10 10 9 7 6 5 5 4 3 3
9 8 8 7 6 5 5 5 6 6 6 11 13 13 11 11 10 10 10 10 11 11 11 10 10 9 9 8 8 7 7 6 6 5 5 5 5 5 4 4 3 3 2 1 1 1 2 3 3 4 4 5 5 6 7 8 8 9 8 8 8 8 7 5 1 2 2 5 5 4 4 6 11 11 11 11 10 10 8 7 5 5 5 4 3
9 8 7 7 7 6 5 5 5 5 5 5 5 10 13 11 10 11 10 10 9 10 10 9 9 9 8 8 7 7 6 6 5 5 5 5 5 4 4 3 3 2 2 1 2 2 3 3 4 4 5 5 5 7 8 9 8 8 9 8 9 8 9 4 0 2 3 5 4 3 4 8 10 11 11 11 11 10 9 7 7 5 5 4 4
7 7 6 5 6 6 5 5 5 5 4 4 5 5 10 11 11 10 10 9 9 8 9 9 9 8 8 7 7 4 5 4 5 3 4 3 4 2 3 3 2 2 2 2 2 3 4 4 5 5 5 6 7 7 8 9 10 9 9 9 8 10 4 4 3 3 1 4 4 4 5 10 10 11 11 11 11 10 9 8 7 6 6 6 5
5 6 5 6 5 6 5 4 4 5 5 5 4 4 7 10 8 9 9 8 8 8 8 8 8 7 6 7 5 1 1 1 1 1 2 0 2 2 2 2 1 1 0 2 3 4 5 6 7 7 7 7 7 8 9 10 10 11 12 11 11 6 5 3 3 3 1 3 3 4 7 9 9 10 11 11 11 11 10 9 8 8 7 6 7
6 6 4 5 6 5 5 4 4 5 5 4 4 4 4 7 3 3 4 5 6 6 5 3 6 3 6 4 2 2 1 1 1 3 1 1 1 1 0 1 1 1 2 3 4 5 6 7 7 8 8 7 8 5 5 8 10 10 10 12 7 6 6 5 3 3 1 3 2 5 9 10 11 11 11 12 11 11 11 10 10 8 8 7 8
7 6 6 7 6 6 6 6 5 5 6 5 5 5 5 4 3 3 3 5 4 3 2 3 1 2 1 2 2 1 2 2 1 3 2 3 2 2 2 2 2 3 3 4 5 6 6 7 7 8 8 8 4 4 5 5 6 9 8 6 5 5 6 6 3 1 3 3 4 7 10 11 12 12 11 12 12 11 11 11 10 9 8 7 8
9 8 8 7 7 7 7 8 8 8 7 6 6 5 5 4 4 4 5 3 3 1 3 1 2 2 2 1 2 2 2 2 5 6 3 1 1 2 2 3 5 5 6 4 5 6 7 7 7 7 5 3 3 4 5 5 5 5 5 5 5 6 5 5 5 3 3 3 4 10 12 11 12 12 12 12 12 13 12 12 12 10 9 9 9
10 8 7 7 6 6 7 8 9 9 9 7 7 6 4 4 4 5 5 4 4 3 4 3 2 3 3 3 3 1 1 1 1 1 2 0 0 0 1 2 2 3 5 4 4 4 4 5 4 4 3 3 3 4 3 5 5 5 5 5 5 5 6 5 5 5 4 3 4 10 11 10 11 12 12 12 13 13 12 12 12 11 10 10 10
7 7 8 7 6 8 8 8 8 8 8 7 7 6 6 5 5 5 4 4 4 4 3 3 3 3 3 4 4 4 3 2 2 2 2 1 1 2 2 2 2 3 2 4 4 4 5 4 4 5 5 3 4 4 4 5 5 5 5 5 5 5 5 6 5 5 6 5 5 11 11 12 12 11 12 12 13 13 13 13 13 12 12 12 11
7 8 7 7 7 8 7 7 6 6 6 6 5 5 6 6 6 5 5 5 3 3 4 3 2 3 4 5 5 5 4 3 2 1 2 1 0 1 2 2 2 4 3 3 3 4 5 5 5 5 5 4 4 4 3 4 4 6 5 5 5 5 5 6 5 6 5 4 4 10 11 11 11 11 12 12 13 13 13 14 13 13 12 12 12
11 11 9 9 8 8 7 6 6 6 6 6 5 5 5 5 5 5 5 6 4 3 5 2 4 5 3 3 3 4 4 2 1 1 1 0 1 1 2 3 2 4 4 3 4 5 5 5 4 4 5 4 4 4 3 3 3 3 3 4 4 5 5 6 5 5 4 4 3 6 10 10 11 11 11 12 13 13 14 14 14 13 13 13 13
12 13 11 10 11 9 7 8 7 7 6 6 6 6 5 5 4 4 5 4 3 3 3 3 3 3 3 4 5 4 4 3 0 0 1 2 2 2 4 4 3 4 4 3 3 4 5 4 4 4 3 4 4 4 3 3 3 2 2 2 2 3 4 4 4 3 1 2 3 5 10 11 11 11 11 11 12 13 14 14 14 14 14 13 14
11 13 12 11 11 11 10 10 9 8 7 6 5 4 3 3 3 3 2 3 4 4 3 4 4 4 4 3 1 2 5 5 2 0 0 2 2 2 3 4 4 3 2 4 4 4 5 5 4 2 2 2 2 4 3 4 4 4 4 3 4 4 4 5 4 3 3 2 3 3 8 11 11 11 11 12 13 13 13 13 14 14 14 14 13
11 12 12 11 11 11 10 8 6 5 5 5 4 4 4 4 3 4 4 5 4 4 4 4 4 4 3 2 2 2 1 2 3 3 1 1 2 2 3 4 5 5 4 5 3 4 4 3 2 3 3 3 3 4 4 5 4 4 3 3 4 3 4 4 4 4 4 5 3 3 4 9 11 11 12 12 12 12 12 13 14 14 14 14 13
12 12 10 9 10 8 8 8 8 7 7 6 5 5 4 3 3 5 5 4 4 4 4 4 4 4 2 3 3 3 2 3 2 2 2 2 2 3 3 4 4 5 3 3 4 3 3 2 3 3 2 3 4 4 3 3 4 5 4 5 4 4 3 4 3 4 4 4 6 4 4 4 8 10 11 11 11 11 12 13 14 15 15 15 14
6 8 8 8 8 8 9 8 8 7 9 8 6 5 4 3 3 5 4 4 4 4 4 4 4 5 4 2 1 1 3 1 1 4 4 3 1 3 3 2 3 4 3 1 2 3 3 4 5 3 4 4 4 5 4 4 4 5 5 5 5 5 5 5 5 4 4 4 5 5 5 4 4 6 9 11 11 12 12 13 14 15 15 15 15
7 5 6 7 6 5 6 7 8 8 8 7 6 6 5 4 4 4 4 4 4 5 4 3 4 4 3 3 2 2 3 3 2 3 4 3 3 3 2 3 4 4 4 4 4 4 4 4 5 4 4 4 4 4 4 5 5 5 5 4 4 5 5 5 5 5 4 5 5 4 5 4 4 5 5 8 11 11 12 12 13 14 14 15 14
6 6 8 8 7 6 6 6 7 8 9 7 7 6 4 5 5 4 3 4 4 5 4 4 4 2 2 1 1 2 3 3 3 2 4 3 4 3 4 3 3 4 4 5 5 5 5 4 5 5 5 5 5 4 4 5 4 5 5 5 5 5 5 5 5 5 4 4 3 4 5 4 4 4 5 5 7 10 12 12 12 12 13 14 15
10 8 8 8 7 5 6 8 6 8 7 8 6 6 5 4 5 5 4 3 4 4 3 4 3 2 2 0 1 2 3 2 1 3 5 6 5 5 5 5 4 4 4 5 5 6 4 4 5 5 6 6 6 6 5 5 5 5 5 5 5 4 5 5 5 6 6 5 5 4 5 5 4 5 5 4 5 6 10 11 11 12 13 13 13
9 9 9 8 7 6 7 9 8 8 8 8 6 5 5 5 5 4 3 4 5 4 4 4 4 2 1 2 2 2 3 5 7 7 8 6 5 5 4 4 3 5 5 5 5 5 5 5 6 6 5 4 5 6 7 6 6 5 5 4 5 5 5 5 6 6 6 5 5 6 6 6 6 7 7 6 5 5 7 10 11 12 12 12 13
6 8 8 9 8 6 6 6 7 6 7 8 7 6 5 6 5 5 4 5 4 4 4 4 4 2 2 2 2 3 6 6 7 7 7 6 5 5 4 4 4 5 5 5 5 5 6 6 6 6 6 5 7 7 7 7 5 6 5 5 6 5 5 6 6 5 5 6 6 6 6 6 8 9 8 8 8 7 5 7 11 14 14 13 12
4 7 6 7 8 6 5 6 6 6 7 7 7 6 6 6 5 6 6 5 5 4 4 5 4 3 4 4 5 5 6 7 8 7 7 6 5 5 5 4 5 5 6 6 6 6 6 6 6 6 6 5 6 6 6 6 5 5 5 6 5 4 4 3 5 7 7 7 7 7 8 8 8 9 9 11 11 11 9 8 8 7 9 15 15
5 6 7 6 7 6 5 5 5 6 6 6 6 6 5 6 7 6 7 6 5 6 5 4 5 6 5 5 6 6 7 7 8 8 8 6 6 6 6 5 5 6 7 7 6 6 6 6 6 5 6 5 7 7 7 6 5 3 4 6 4 3 3 2 6 7 6 7 7 7 8 8 9 9 10 10 10 11 10 10 9 9 8 12 18
6 6 6 6 5 6 7 6 4 4 6 6 5 6 7 6 5 6 7 5 6 6 6 5 6 5 6 7 7 6 7 7 7 8 7 6 5 5 6 6 6 7 6 5 4 6 6 5 3 4 6 6 8 8 9 5 5 6 3 3 5 4 2 3 7 8 7 6 6 8 8 10 10 9 9 9 11 11 10 10 9 9 9 9 12
6 6 6 6 5 5 6 6 4 3 4 4 5 5 3 4 6 6 6 6 6 6 6 5 5 5 7 7 7 7 7 7 7 7 7 6 5 5 6 6 6 5 5 4 5 6 6 6 4 4 4 5 5 8 9 6 6 4 5 7 4 6 2 3 6 8 6 6 7 8 9 10 11 9 9 10 10 11 11 9 9 10 9 9 10
8 6 6 6 5 5 5 4 4 4 3 4 4 5 4 5 6 5 6 6 6 6 6 5 5 6 7 7 7 6 6 6 6 6 5 5 5 6 6 5 5 4 6 7 6 7 6 6 6 4 4 4 4 7 9 8 4 5 1 1 4 7 6 6 2 8 6 6 7 9 9 10 12 9 9 9 10 10 9 9 10 10 10 9 9
6 6 5 6 5 4 4 4 4 4 4 4 5 5 6 7 6 7 7 7 7 6 6 5 5 7 8 6 6 5 5 6 6 5 6 6 6 6 5 6 6 5 6 7 7 7 6 6 6 7 3 5 5 6 7 9 8 6 5 2 3 1 5 3 8 7 2 6 9 9 9 11 10 10 9 11 10 9 9 9 10 10 9 11 8
6 5 5 5 4 5 4 5 5 4 4 5 6 7 9 8 8 9 9 9 6 5 6 6 5 6 6 6 5 5 7 7 6 6 6 7 6 6 6 5 6 6 6 7 6 5 5 5 6 6 6 3 5 4 7 8 10 8 3 3 3 3 3 7 9 3 6 4 7 8 10 12 9 10 9 10 9 9 9 10 10 8 10 11 8
6 5 6 6 5 5 5 5 4 5 6 6 7 8 9 11 10 9 8 6 6 5 6 6 4 5 5 3 6 6 7 7 7 7 7 6 7 6 6 6 7 7 6 6 5 5 6 6 5 5 6 5 5 7 6 6 7 8 8 6 4 3 5 6 5 7 3 2 5 7 8 10 7 10 8 11 12 10 9 9 9 9 10 10 8
6 6 7 6 5 4 5 5 5 5 5 5 6 7 7 7 8 9 8 7 7 5 5 4 6 5 5 6 6 7 7 8 7 6 6 6 6 6 6 6 6 6 5 6 6 5 5 4 4 5 5 5 6 8 7 5 4 7 7 7 7 6 7 6 5 6 8 3 4 9 6 10 6 8 9 11 11 10 9 9 9 10 10 9 9
8 8 7 5 6 5 5 5 4 4 3 4 5 5 8 7 7 7 7 7 8 8 7 6 5 5 6 6 7 7 7 7 7 7 6 6 6 6 6 6 6 5 5 6 5 4 5 4 4 4 4 5 5 7 5 6 6 5 5 7 6 6 7 8 5 3 2 9 9 3 3 10 4 5 8 10 11 9 10 9 10 11 9 9 10
9 8 7 6 5 4 5 5 5 4 3 4 5 4 5 7 8 8 8 5 8 7 6 6 6 5 8 7 8 7 7 8 8 7 6 6 5 5 5 5 5 4 4 5 4 4 4 4 4 5 5 6 5 4 5 6 6 6 5 6 6 6 6 7 7 7 6 5 7 11 15 6 2 5 7 9 10 8 10 8 10 10 9 9 11
8 8 7 6 5 5 7 7 6 5 4 6 6 6 6 8 8 9 10 7 6 6 6 7 6 6 8 7 6 7 6 6 7 7 6 5 6 5 5 5 4 5 4 4 3 3 3 3 4 4 5 7 6 7 8 7 7 7 7 6 6 5 5 6 7 7 4 4 6 10 9 15 16 7 6 11 11 7 9 7 9 9 9 9 10
8 8 8 7 5 6 8 8 6 6 6 7 7 7 6 6 8 9 10 10 8 8 7 6 6 7 8 7 6 6 6 6 6 6 5 5 5 5 5 4 5 5 5 5 4 4 4 4 5 7 8 8 8 9 9 8 8 8 7 7 7 7 6 6 6 6 4 4 5 5 8 9 10 14 9 9 9 8 8 8 9 9 9 9 10
Wind_Direction
148 138 140 146 145 141 136 134 130 127 122 119 115 112 111 109 107 105 104 102 101 101 97 94 91 92 90 90 89 89 92 94 94 96 98 98 99 100 100 97 91 88 88 86 82 78 76 78 79 79 84 88 88 89 90 91 95 95 95 96 98 100 100 97 96 95 96 89 88 90 92 93 95 93 89 90 89 88 83 78 73 73 64 79 78
146 136 135 143 144 141 136 132 130 127 123 119 115 113 111 109 108 107 105 103 102 100 99 96 92 91 92 91 93 95 94 92 95 96 99 102 103 103 101 98 96 94 91 90 86 79 78 80 82 82 85 90 91 90 95 99 97 94 96 100 102 102 101 102 101 97 94 91 88 87 89 91 89 90 90 90 90 89 89 85 79 60 55 74 76
128 129 138 145 142 140 136 133 131 126 124 118 115 114 112 111 109 107 105 103 102 100 97 94 93 93 94 94 96 98 96 95 97 99 101 103 103 105 103 101 102 101 100 95 90 84 79 78 80 82 85 88 91 92 97 104 95 91 92 102 100 98 99 99 99 96 89 87 86 84 87 85 83 85 87 88 90 89 85 85 83 78 76 75 74
130 135 140 145 140 138 137 134 130 126 123 119 117 115 114 112 109 107 105 104 103 102 99 97 96 96 95 95 96 96 97 97 97 100 102 104 105 104 103 103 99 97 101 98 91 87 84 79 76 79 85 91 92 90 91 92 87 83 95 95 96 99 103 102 102 98 94 85 75 62 56 61 75 83 87 88 86 94 92 95 87 82 83 84 81
127 136 139 139 139 137 134 132 129 127 125 121 119 117 116 113 110 106 105 104 103 102 100 99 97 95 95 96 97 97 97 97 98 100 105 108 109 108 104 106 105 104 100 91 85 83 83 83 79 77 79 84 85 87 89 89 87 78 77 85 88 85 92 102 112 119 100 74 90 60 42 83 86 83 88 86 78 88 104 90 82 82 82 84 85
132 133 132 132 135 135 135 130 129 129 125 123 121 119 117 114 110 107 105 104 104 104 102 100 98 97 97 99 100 100 100 99 98 99 101 107 112 110 108 107 107 101 91 87 84 76 73 72 73 75 77 83 88 86 85 85 86 82 78 80 80 82 80 68 54 13 346 73 88 72 65 94 92 94 89 84 83 84 81 83 86 85 80 73 70
127 129 131 128 130 137 136 131 131 128 127 124 123 121 119 116 111 109 108 107 106 105 104 103 101 98 98 99 102 102 100 100 99 100 103 103 103 106 107 103 102 105 96 88 82 78 73 67 66 68 70 79 84 85 83 83 82 78 78 75 70 62 63 38 14 348 319 18 136 136 147 70 77 77 87 82 90 83 86 84 78 78 81 74 57
123 127 129 128 130 138 135 134 132 130 129 127 125 123 120 116 114 112 110 110 108 106 107 106 104 102 102 102 103 103 102 100 99 100 101 102 100 102 106 105 105 95 84 79 75 70 67 62 57 55 59 66 71 74 70 76 76 70 64 63 52 46 40 18 357 330 316 197 145 144 144 107 73 60 94 96 91 89 81 76 77 75 77 77 68
125 128 127 126 135 136 132 135 134 133 131 129 127 125 121 118 117 115 114 111 111 111 110 108 107 105 103 101 102 103 103 101 101 103 106 107 107 107 104 94 81 78 77 78 72 65 61 58 51 47 43 46 48 45 58 49 56 53 50 46 36 30 23 9 351 357 322 159 142 143 148 127 109 104 102 96 94 88 83 77 66 71 78 80 75
124 125 126 127 134 137 137 135 137 136 133 130 128 125 122 121 119 117 116 115 115 115 112 111 110 108 106 103 99 97 99 100 102 102 102 104 105 103 104 109 100 89 88 86 79 70 70 63 55 46 40 31 21 22 28 41 33 35 32 30 21 17 16 7 9 7 18 105 132 139 155 127 109 106 117 109 102 95 96 97 97 90 80 72 78
123 127 122 124 129 132 133 137 138 137 134 131 128 125 124 122 120 118 118 118 117 116 115 113 111 107 103 102 103 104 104 104 104 107 111 104 101 96 86 85 97 99 90 80 75 70 70 68 62 52 42 25 6 359 5 17 17 18 15 15 9 12 12 11 18 8 18 106 127 153 143 128 125 128 117 113 110 104 98 95 89 92 87 76 69
120 116 114 123 132 130 133 137 138 137 133 129 128 127 125 123 122 119 119 119 118 117 116 115 113 109 107 106 107 105 103 103 100 102 102 102 98 103 105 85 89 83 88 70 67 70 67 72 69 59 42 31 14 0 2 6 6 6 6 6 6 9 11 14 18 6 14 132 145 145 133 134 154 135 126 124 118 111 103 93 85 88 90 89 83
121 121 119 115 120 132 133 135 136 133 131 130 129 128 126 125 122 120 119 119 119 119 119 118 114 114 112 111 110 106 104 102 102 104 104 103 104 99 105 114 83 90 89 70 66 64 62 68 72 67 52 28 16 11 6 358 5 357 357 2 4 5 5 18 19 14 17 131 140 142 146 152 160 138 133 130 127 120 112 104 96 87 85 81 75
126 120 117 122 130 133 131 134 134 131 129 129 128 127 126 124 123 121 121 121 121 120 121 120 118 117 117 116 112 109 108 107 106 104 105 106 111 112 114 117 112 87 77 65 64 50 41 50 62 56 46 32 15 8 2 1 353 352 352 357 355 353 3 27 30 14 22 126 138 189 156 164 168 141 140 136 131 123 115 104 107 105 93 98 80
126 126 127 126 126 130 131 127 126 124 123 122 122 121 121 120 120 121 121 120 122 124 125 125 123 123 124 124 122 121 121 120 119 114 108 108 112 120 120 131 132 128 91 57 44 31 23 30 44 49 35 23 8 355 354 347 344 341 343 345 339 341 357 44 21 11 358 144 169 190 183 175 156 148 146 141 135 128 120 121 123 119 120 109 100
120 124 118 115 117 119 124 129 120 117 119 120 119 120 119 120 120 120 122 124 126 130 129 129 131 132 132 132 134 132 130 130 126 123 120 115 116 122 132 131 144 137 149 56 18 10 10 16 26 35 33 19 360 350 340 331 328 328 329 332 331 334 348 9 20 335 337 158 170 198 205 185 162 155 149 144 138 133 131 126 129 129 134 109 116
113 108 109 106 104 105 106 112 126 122 118 120 122 122 119 120 121 124 127 129 133 135 136 137 138 140 140 141 142 140 135 134 135 130 124 123 122 122 129 137 144 157 167 187 348 355 353 359 11 22 19 9 351 337 328 322 316 317 319 319 321 324 324 342 67 298 235 162 175 192 222 192 167 160 153 148 143 141 136 133 135 134 121 122 91
104 102 100 99 95 96 103 107 115 118 126 126 126 124 122 123 128 130 130 135 138 140 142 144 144 144 143 145 146 147 147 143 139 136 129 127 125 123 123 138 146 156 168 204 244 299 311 328 342 356 359 354 345 334 324 316 314 310 308 307 307 305 307 330 105 284 266 185 182 184 221 203 173 166 160 155 152 151 148 144 147 158 138 129 115
101 96 91 97 98 96 93 98 106 109 118 119 130 130 128 132 132 134 137 140 141 145 147 146 147 143 143 146 153 152 155 153 150 144 144 145 139 130 128 133 148 161 189 209 268 284 301 311 325 337 339 338 333 329 322 316 308 303 300 299 300 301 306 341 187 220 275 175 182 189 213 212 177 173 167 159 157 159 157 158 163 159 153 144 159
99 95 93 93 103 103 102 107 110 118 118 120 120 126 133 136 139 139 142 145 148 149 151 149 149 147 147 153 159 162 162 160 157 154 150 141 137 133 132 127 138 160 198 240 259 286 293 301 314 325 335 331 325 326 319 314 312 306 301 301 304 308 319 319 320 317 277 182 180 190 216 215 189 179 170 165 166 167 165 163 170 174 168 168 166
97 91 106 114 112 114 117 113 122 122 117 112 115 125 138 141 143 148 149 151 157 161 155 155 151 152 152 159 161 125 138 254 154 175 178 158 176 141 123 129 131 139 231 277 295 296 307 310 319 327 328 322 320 318 315 313 314 314 315 317 318 319 314 320 311 299 317 189 188 192 217 208 197 188 179 175 173 174 173 172 176 183 182 188 188
116 116 120 134 131 131 132 128 125 123 123 121 129 138 148 147 147 152 158 168 172 170 163 164 163 157 163 166 151 175 191 231 254 203 125 232 255 235 107 47 14 350 323 316 311 305 310 314 314 315 314 320 319 324 318 314 313 309 305 305 311 310 315 316 337 305 274 195 197 215 208 202 202 195 188 185 182 180 182 183 183 193 194 203 191
130 136 148 156 154 149 148 143 144 140 134 139 146 156 155 157 150 157 181 185 191 174 168 182 91 154 158 171 175 214 190 239 233 241 170 203 221 242 300 309 323 331 328 317 310 305 304 298 298 303 308 310 313 309 305 305 305 305 306 304 299 294 298 302 304 268 276 220 194 216 205 203 208 203 199 193 191 190 189 191 192 195 202 205 185
150 158 160 165 166 161 161 158 157 157 151 158 159 165 163 156 162 179 200 187 197 174 173 216 152 160 205 195 199 222 236 223 244 250 214 155 241 223 243 293 314 326 317 322 314 307 306 303 296 293 294 296 295 289 291 287 288 288 291 288 286 287 289 289 292 278 252 238 212 210 202 205 211 210 209 203 200 199 196 197 198 199 203 203 200
155 147 151 166 175 172 164 169 166 166 161 162 162 166 162 159 177 194 201 185 188 191 195 201 194 181 191 187 205 201 139 121 68 54 62 118 335 349 325 318 327 317 308 305 305 303 310 305 304 300 282 271 277 275 275 279 274 272 273 277 276 281 286 284 280 282 274 242 221 213 201 206 214 215 215 211 208 207 205 204 203 206 206 204 212
123 133 156 165 180 179 177 173 171 170 166 163 163 167 162 172 191 207 203 202 194 197 209 213 220 214 175 149 139 124 123 113 85 75 76 38 346 332 299 277 289 273 273 272 280 292 295 289 295 294 285 259 246 248 244 254 269 266 260 263 267 275 274 279 282 286 277 245 217 208 204 209 216 220 220 219 215 215 214 212 212 213 211 206 212
137 151 159 169 177 183 183 171 173 169 167 164 162 160 175 188 190 202 205 211 195 185 220 226 213 173 155 158 134 123 105 91 81 90 80 112 289 332 303 285 272 273 278 262 265 261 271 282 280 278 282 288 280 264 248 237 246 262 262 254 253 252 259 265 273 273 262 241 235 216 209 213 219 225 227 228 223 222 221 222 223 222 219 214 215
153 168 167 171 174 185 182 174 176 172 173 175 168 178 186 189 198 203 216 218 172 179 213 172 159 147 149 130 118 109 113 100 62 28 25 15 338 291 284 293 272 264 264 265 277 281 277 270 273 277 280 283 281 284 298 286 266 245 236 244 250 257 255 254 254 262 244 223 225 231 217 220 223 229 232 235 234 231 229 229 231 231 228 225 223
169 169 172 171 177 180 176 181 183 178 173 170 178 189 190 195 194 199 224 230 163 175 163 162 116 123 126 133 133 130 121 130 139 356 355 6 331 334 328 301 286 271 273 279 258 272 271 268 265 264 264 267 274 279 272 305 309 266 233 267 269 275 276 280 283 290 321 196 203 226 221 222 226 230 235 238 240 242 239 238 237 237 237 235 235
179 169 166 173 175 175 179 185 183 176 169 165 182 163 160 125 122 104 44 70 72 70 99 85 78 66 42 31 39 149 164 154 154 170 86 317 354 320 284 273 275 274 267 283 275 268 271 276 271 269 289 305 312 308 344 326 316 321 327 311 297 294 300 294 296 293 274 248 231 234 227 227 233 236 240 243 245 245 247 248 249 247 244 246 248
174 170 170 170 172 175 177 167 157 133 134 136 127 117 104 111 115 100 66 66 72 78 62 71 78 68 40 6 16 23 12 76 143 148 138 42 8 338 355 350 339 313 282 259 270 260 266 262 302 346 358 351 343 343 3 345 333 330 322 316 305 315 305 302 289 300 316 303 277 251 245 237 239 244 244 247 251 255 252 251 254 255 254 252 251
173 174 169 167 165 151 132 132 130 134 127 120 118 112 104 109 108 90 80 89 102 83 70 58 66 65 47 32 2 346 327 22 345 81 79 53 19 12 351 4 321 314 310 292 301 317 333 341 357 5 15 20 355 1 356 3 341 332 334 330 328 328 313 308 298 299 300 297 298 293 274 268 256 254 255 254 255 254 255 255 255 256 257 257 257
168 164 158 149 139 133 128 129 129 126 123 123 118 113 111 102 93 91 100 101 100 95 81 75 75 65 61 88 247 249 111 129 40 85 83 88 21 31 24 354 334 328 302 293 0 356 13 8 8 352 9 7 8 351 347 355 352 340 340 330 333 320 316 314 300 299 288 282 283 283 282 271 273 277 271 266 261 256 254 256 257 259 260 259 257
150 140 137 128 122 121 125 124 123 118 116 117 118 116 117 116 103 97 105 103 100 98 93 76 76 83 108 167 200 202 115 96 48 52 77 77 63 56 33 334 330 335 331 19 21 8 9 14 355 0 358 4 355 335 353 346 337 332 338 329 331 316 321 318 300 283 276 280 274 281 274 270 261 262 269 273 270 264 259 255 254 258 260 262 261
126 144 137 130 126 129 128 116 123 120 119 119 118 120 126 119 115 109 97 104 95 92 83 74 71 102 146 215 243 75 68 87 111 165 90 99 74 24 352 327 346 4 9 20 27 12 14 20 8 10 352 355 347 343 359 341 333 330 322 329 320 319 323 311 307 299 289 281 287 285 294 293 283 269 265 268 272 270 264 258 255 250 253 256 257
150 147 132 129 125 124 122 119 122 120 118 119 117 122 126 122 121 114 110 106 102 93 92 90 85 58 58 62 3 73 105 137 141 141 94 68 63 59 42 39 48 54 43 32 33 24 2 19 17 24 11 359 0 358 359 348 336 326 321 323 315 321 317 314 311 305 300 307 299 297 296 289 282 275 264 252 257 266 261 263 258 255 253 253 254
146 140 134 124 120 123 125 124 127 125 120 114 118 121 121 117 106 106 102 94 89 86 82 91 85 79 30 78 99 83 57 68 83 82 82 77 69 73 59 55 49 58 49 38 37 19 21 16 13 14 23 360 7 0 355 349 334 325 322 328 327 330 329 322 319 318 320 320 317 319 324 327 328 322 321 307 284 270 273 272 270 265 260 256 251
140 130 133 130 127 125 122 120 120 121 122 126 128 125 122 112 104 101 88 80 75 74 74 87 93 90 60 55 34 42 61 65 70 80 83 83 76 66 54 44 47 50 49 40 29 20 26 26 14 7 10 15 16 4 347 339 327 324 326 328 326 337 336 344 341 346 1 359 357 358 346 356 356 355 348 339 325 306 310 318 311 306 300 281 267
104 110 107 110 113 114 114 120 121 122 119 121 122 116 108 94 93 96 91 84 84 81 79 79 75 53 41 60 63 55 57 57 59 61 68 65 65 54 48 34 41 45 42 34 25 22 25 20 26 6 10 25 28 2 343 324 327 321 319 315 318 325 350 1 21 28 24 24 26 20 27 21 13 11 11 13 15 9 6 359 353 343 320 316 301
92 95 99 104 111 111 114 113 119 124 122 117 119 113 107 113 111 99 87 85 83 81 65 68 66 66 65 63 60 57 54 56 57 58 59 51 49 48 43 33 38 48 43 38 26 26 24 20 17 16 11 12 26 6 352 341 322 323 313 316 308 318 346 55 40 31 24 24 27 28 29 18 19 10 17 21 25 23 19 14 7 357 349 344 339
96 105 107 109 119 130 134 135 133 131 133 129 126 131 127 113 93 104 109 102 93 84 73 66 71 78 74 66 62 57 55 54 55 57 57 55 48 43 41 31 36 47 51 45 34 35 31 30 13 21 21 23 20 5 356 326 8 349 332 325 319 331 358 82 52 30 23 21 28 36 28 24 17 9 19 18 21 19 15 11 2 355 357 359 359
114 114 123 128 125 123 130 129 126 121 119 124 132 121 106 126 130 127 116 101 96 90 90 71 75 74 75 74 68 60 56 56 54 55 55 53 48 41 37 34 39 53 60 49 45 41 37 33 17 25 19 40 38 6 360 1 26 358 330 333 340 329 1 41 57 26 20 21 32 39 31 25 14 7 19 15 18 15 9 7 359 356 358 5 9
124 122 128 128 121 116 121 124 116 119 117 123 115 117 105 110 121 128 120 100 73 89 92 90 86 80 68 70 69 63 62 57 52 55 59 51 54 51 42 44 51 53 55 47 43 42 34 36 31 38 7 24 45 20 17 31 10 313 250 33 356 360 335 2 360 22 15 30 38 41 32 24 9 17 16 17 16 8 4 1 358 357 357 8 14
121 129 131 122 118 120 126 122 116 115 118 113 110 108 111 111 104 113 96 94 112 97 86 82 81 79 70 68 65 67 63 58 51 53 60 55 53 54 53 53 51 47 62 65 51 49 38 36 36 34 35 45 20 22 22 20 27 5 20 17 293 45 333 12 336 322 21 45 44 40 36 16 7 20 15 19 9 1 0 357 359 357 4 4 16
132 133 128 125 123 125 126 129 124 122 118 118 121 123 116 106 105 96 100 96 80 87 89 68 65 82 82 64 62 60 60 60 54 56 59 58 53 51 56 55 57 51 63 66 62 56 53 48 42 49 40 68 44 28 19 21 30 28 48 15 1 20 1 318 323 275 16 15 39 43 35 16 9 19 15 15 3 2 356 357 360 3 10 359 12
132 123 118 119 125 129 127 126 120 117 121 127 134 135 136 134 131 125 124 120 115 108 106 119 102 89 92 87 64 62 68 64 58 56 58 58 56 52 53 58 58 59 61 70 69 59 50 49 40 62 57 42 87 51 31 11 30 32 37 51 49 29 336 320 18 313 359 63 67 44 32 19 4 18 16 8 3 360 357 357 359 9 6 358 13
130 125 119 122 126 133 136 132 134 132 132 136 143 136 132 136 134 135 136 134 123 106 116 119 112 104 95 81 80 68 64 66 57 56 59 63 61 52 54 61 66 66 67 70 64 61 60 59 53 60 62 61 56 66 48 8 9 31 27 35 46 50 34 30 8 303 331 354 63 10 22 16 2 23 15 8 360 355 354 355 2 8 1 358 16
131 125 126 133 143 146 134 128 127 127 128 136 139 149 141 138 122 116 120 125 124 132 134 120 110 112 97 90 81 72 64 66 66 58 55 61 62 53 53 59 67 69 75 73 76 67 63 53 61 62 66 69 71 73 63 39 56 11 12 28 27 38 41 42 34 23 314 327 319 22 102 6 5 33 12 7 357 355 350 356 4 2 359 3 15
135 137 144 146 140 129 113 105 99 100 104 127 140 140 126 127 124 123 117 120 124 129 127 117 117 111 93 75 76 73 66 63 64 64 54 55 59 57 52 61 64 64 69 72 70 71 75 72 57 53 59 53 55 64 67 46 39 29 14 18 26 34 35 36 21 20 21 339 315 345 333 356 62 14 9 9 351 349 349 358 5 357 357 7 9
137 141 139 129 127 121 114 106 100 100 107 112 120 120 122 124 125 129 128 129 125 120 117 119 113 105 96 91 83 82 76 69 63 61 56 49 56 51 55 58 59 67 65 66 59 51 43 53 54 60 57 58 46 53 56 49 51 47 52 54 50 27 34 26 25 16 4 28 339 332 344 341 337 352 16 357 346 350 343 6 1 358 0 9 4
140 143 136 132 128 122 116 107 110 101 94 96 101 103 107 116 126 130 132 134 134 126 120 115 114 106 100 94 88 86 81 74 65 55 52 48 49 48 52 56 59 63 67 65 63 60 49 52 56 61 61 60 55 55 56 58 60 56 51 54 60 57 53 52 33 22 31 15 341 333 332 339 320 323 347 354 335 350 336 13 359 360 360 1 358